This is the latest recevied weather packets stored in our database for station/object KD2VWU. If no packets are shown the sender has not sent any weather packets the latest 10 day(s).
| Time | Temp. | Humidity | Pressure | Rain* | Wind** | Luminosity | Snow |
|---|---|---|---|---|---|---|---|
| 1777767418 | 10.56° C | 58% | 1008 hPa | 0 mm | - | - | - |
| 1777767115 | 10.56° C | 61% | 1007.8 hPa | 0 mm | - | - | - |
| 1777766813 | 10.56° C | 61% | 1007.9 hPa | 0 mm | - | - | - |
| 1777766509 | 10.56° C | 61% | 1008 hPa | 0 mm | - | - | - |
| 1777766206 | 10.56° C | 62% | 1007.9 hPa | 0 mm | - | - | - |
| 1777765904 | 10.56° C | 62% | 1007.7 hPa | 0 mm | - | - | - |
| 1777765600 | 11.11° C | 63% | 1007.8 hPa | 0 mm | - | - | - |
| 1777765298 | 11.11° C | 60% | 1007.7 hPa | 0 mm | - | - | - |
| 1777764993 | 11.11° C | 61% | 1007.5 hPa | 0 mm | - | - | - |
| 1777764690 | 11.11° C | 59% | 1007.5 hPa | 0 mm | - | - | - |
| 1777764386 | 11.67° C | 58% | 1007.5 hPa | 0 mm | - | - | - |
| 1777764084 | 11.67° C | 57% | 1007.5 hPa | 0 mm | - | - | - |
| 1777763780 | 11.67° C | 56% | 1007.5 hPa | 0 mm | - | - | - |
| 1777763478 | 11.67° C | 54% | 1007.6 hPa | 0 mm | - | - | - |
| 1777763176 | 12.22° C | 54% | 1007.4 hPa | 0 mm | - | - | - |
| 1777762874 | 12.22° C | 50% | 1007.3 hPa | 0 mm | - | - | - |
| 1777762569 | 12.22° C | 51% | 1007.3 hPa | 0 mm | - | - | - |
| 1777762267 | 12.22° C | 55% | 1007.4 hPa | 0 mm | - | - | - |
| 1777761963 | 12.78° C | 56% | 1007.4 hPa | 0 mm | - | - | - |
| 1777761660 | 12.78° C | 55% | 1007.4 hPa | 0 mm | - | - | - |
| 1777761358 | 12.78° C | 53% | 1007.2 hPa | 0 mm | - | - | - |
| 1777761056 | 12.78° C | 55% | 1007.2 hPa | 0 mm | - | - | - |
| 1777760753 | 12.78° C | 52% | 1007.2 hPa | 0 mm | - | - | - |
| 1777760449 | 12.78° C | 53% | 1007.2 hPa | 0 mm | - | - | - |
| 1777760145 | 12.78° C | 56% | 1007.2 hPa | 0 mm | - | - | - |
* Rain latest hour (hover to see other rain measurements)
** Current wind speed in m/s (hover to see current wind gust speed)